Regional Weather Roundup
Issued by NWS Jackson, KY

Home | Current Version | Previous Version | Text Only | Print | Product List | Glossary Off
Versions: 1 2 3 4 5 6 7 8 9 10 11 12 13 14 15 16 17 18 19 20 21 22 23 24 25 26 27 28 29 30 31 32 33 34 35 36 37 38 39 40 41 42 43 44 45 46 47 48 49 50

000
ASUS43 KJKL 201711
RWRJKL

EAST KENTUCKY HOURLY WEATHER ROUNDUP
NATIONAL WEATHER SERVICE JACKSON KY
100 PM EDT MON OCT 20 2014

NOTE: "FAIR" INDICATES FEW OR NO CLOUDS BELOW 12,000 FEET WITH
NO SIGNIFICANT WEATHER AND/OR OBSTRUCTIONS TO VISIBILITY.

* THESE REPORTS ARE NOT UNDER NWS QUALITY CONTROL AND MAY NOT
  REPORT WEATHER SUCH AS PRECIPITATION AND FOG.

KYZ079-080-083-085-087-088-110-112-115-119-120-201800
...EASTERN KENTUCKY...

CITY           SKY/WX    TMP DP  RH WIND       PRES   REMARKS
JACKSON        CLOUDY    54  45  71 VRB6      30.03F
LONDON         CLOUDY    61  47  59 W6        30.05F
SOMERSET*      LGT RAIN  54  48  82 CALM      30.07F
MONTICELLO*    CLOUDY    59  49  69 SW7       30.07F
WILLIAMSBURG*  MOSUNNY   63  48  59 CALM      30.05F
MIDDLESBORO*   MOSUNNY   63  48  58 S7        30.05F
HARLAN APT*    MOSUNNY   61  45  55 SW6       30.05F
HAZARD APT*    PTSUNNY   57  46  67 SW3       30.03F
BLACK MTN*       N/A     52  43  71 S6          N/A
PIKEVILLE APT* MOSUNNY   57  45  62 W8        30.04F
BIG SANDY*     CLOUDY    56  46  70 SW3       30.04F
MOREHEAD APT*  CLOUDY    54  48  82 S9        30.02F
$$

KYZ035-036-041-042-044-050-067-078-099-201800
...CENTRAL KENTUCKY...

CITY           SKY/WX    TMP DP  RH WIND       PRES   REMARKS
MT STERLING*   CLOUDY    52  50  93 W10       30.03S
FLEMING/MASON* MOSUNNY   57  48  72 SW14G21   29.99F
DANVILLE*      CLOUDY    54  48  82 SW6       30.03F
RICHMOND*      CLOUDY    52  46  82 SW8       30.03F
LEXINGTON      PTSUNNY   58  50  75 SW12      30.01F
FRANKFORT      CLOUDY    56  49  77 SW12      29.98F
$$

KYZ091>093-OHZ055-061-077-WVZ005-015-034-035-042-201800
...SOUTHERN OHIO/WEST VIRGINIA...

CITY           SKY/WX    TMP DP  RH WIND       PRES   REMARKS
COVINGTON      PTSUNNY   57  47  69 SW17G23   29.94
COLUMBUS       PTSUNNY   58  45  62 S13       29.92F
DAYTON         PTSUNNY   59  47  64 S17G24    29.89F
WILMINGTON       N/A    N/A N/A N/A MISG      29.91F
HUNTINGTON     LGT RAIN  51  47  86 S7        30.00F
CHARLESTON     CLOUDY    56  43  61 SW8       30.02F
PINEVILLE*     MOSUNNY   63  47  57 MISG      30.08F
BECKLEY        MOSUNNY   59  39  47 SW10      30.03F
BLUEFIELD      SUNNY     61  41  47 W10       30.04F
$$

VAZ002-007-008-TNZ017-027-036-066-071-201800
...SOUTHWEST VIRGINIA/EAST TENNESSEE...

CITY           SKY/WX    TMP DP  RH WIND       PRES   REMARKS
WISE*          MOSUNNY   55  43  62 SW14      30.07F
JONESVILLE*    MOSUNNY   61  46  59 SW14      30.08F
ABINGDON*      MOSUNNY   61  46  58 W15G22    30.08F
BRISTOL        PTSUNNY   63  46  54 SW22G28   30.07F
KNOXVILLE      PTSUNNY   65  50  58 SW14      30.06F
OAK RIDGE      MOSUNNY   65  49  56 VRB5      30.08F
CROSSVILLE     MOSUNNY   63  43  48 SW8       30.08F
NASHVILLE      CLOUDY    62  48  60 SW7       30.06F
$$

...KEY TO REMARKS...
VSB - VISIBILITY IN MILES
WCI - WIND CHILL INDEX
HX  - HEAT INDEX

$$


USA.gov is the U.S. government's official web portal to all federal, state and local government web resources and services.